BALIKESIR_(TUR-AFB) current weather conditions

sailwx.info

Air temperature 8.0° C
Visibility: greater than 5.4 NM
Dewpoint -3.0° C

Last reported at 2020-Jan-22 13:50 UTC.
Time now 2020-Jan-22 14:45 UTC

Location: N 39°37' E 027°55'.
View on Google Maps.

See reports from other nearby stations

  
Tides and Currents Weather Stations Pressure Air Temp Water Temp Dewpoint Dewpoint Depression Visibility Wind Speed Wind Dir Waves Ship Positions
date/time (UTC)wind fromknots sea level pressurealtimeterstation pressurevisibilityair tempwater tempwave heightnotes
2020-Jan-22 13:50 5.4 8.0
2020-Jan-22 12:50 5.4 8.0
2020-Jan-22 11:50 5.4 7.0
2020-Jan-22 10:50 5.4 8.0
2020-Jan-22 09:50 5.4 6.0
2020-Jan-22 08:50 5.4 5.0
2020-Jan-22 07:50 5.4 3.0
2020-Jan-22 06:50 5.4 1.0
2020-Jan-22 05:50 140 1 5.4-1.0
2020-Jan-22 04:50 5.4-1.0
2020-Jan-22 03:50 350 1 5.4-0.0
2020-Jan-22 02:50 5.4-0.0
2020-Jan-22 01:50 030 6 5.4 2.0
2020-Jan-22 00:50 360 2 5.4 3.0
2020-Jan-21 23:50 010 5 5.4 3.0
2020-Jan-21 22:50 350 6 5.4 3.0
2020-Jan-21 21:50 360 4 5.4 3.0
2020-Jan-21 20:50 350 5 5.4 3.0
2020-Jan-21 19:50 350 6 5.4 3.0
2020-Jan-21 18:50 350 5 5.4 3.0
2020-Jan-21 17:50 350 6 5.4 3.0
2020-Jan-21 16:50 350 6 5.4 3.0
2020-Jan-21 15:50 360 8 5.4 3.0
2020-Jan-21 14:50 360 9 5.4 3.0
2020-Jan-21 13:50 010 9 5.4 4.0
2020-Jan-21 12:50 010 9 5.4 4.0
2020-Jan-21 11:50 360 9 5.4 4.0
2020-Jan-21 10:50 020 9 5.4 4.0
2020-Jan-21 09:50 020 12 5.4 4.0
2020-Jan-21 08:50 020 13 5.4 4.0
2020-Jan-21 07:50 020 11 5.4 4.0
2020-Jan-21 06:50 020 11 5.4 4.0
2020-Jan-21 05:50 020 11 5.4 3.0
2020-Jan-21 04:50 020 9 5.4 3.0
2020-Jan-21 03:50 030 12 5.4 3.0
2020-Jan-21 02:50 020 13 5.4 3.0
2020-Jan-21 01:50 010 12 5.4 3.0
2020-Jan-21 00:50 360 11 5.4 3.0
2020-Jan-20 23:50 350 9 5.4 3.0
2020-Jan-20 22:50 010 11 5.4 3.0
2020-Jan-20 21:50 360 13 5.4 3.0
2020-Jan-20 20:50 360 12 5.4 3.0
2020-Jan-20 19:50 350 11 5.4 4.0
2020-Jan-20 18:50 350 8 5.4 4.0
2020-Jan-20 17:50 010 13 5.4 4.0
2020-Jan-20 16:50 010 17 5.4 4.0
2020-Jan-20 15:50 350 15 5.4 4.0 Light rain.
2020-Jan-20 14:50 350 12 5.4 4.0 Light rain.